Piney Island, NC

4:19 PM EDT on March 24, 2017 (GMT -0400)
Piney Island

Weather History for KNBT - August, 2014

Change the Weather History Date:

Wednesday, August 13, 2014

  Actual Average (KMRH) Record (KMRH)
Temperature  
Mean Temperature 82 °F -  
Max Temperature 89 °F 85 °F 109 °F (2012)
Min Temperature 77 °F 70 °F 62 °F (1979)
Cooling Degree Days 18    
Growing Degree Days 32 (Base 50)    
Moisture  
Dew Point 74 °F    
Average Humidity 79    
Maximum Humidity 97    
Minimum Humidity 57    
Precipitation  
Precipitation 0.00 in - - ()
Sea Level Pressure  
Sea Level Pressure 29.85 in    
Wind  
Wind Speed 8 mph (West)    
Max Wind Speed 14 mph    
Max Gust Speed 20 mph    
Visibility 9 miles    
Events      
Averages and records for this station are not official NWS values.
T = Trace of Precipitation, MM = Missing Value Source: NWS Daily Summary

Daily Weather History Graph

Daily Weather History Graph

Search for Another Location

Airport or City:

Trip Planner

Search our weather history database for the weather conditions in past years. The results will help you decide how hot, cold, wet, or windy it might be!

Date:

Astronomy

Aug. 13, 2014 Rise Set
Actual Time 6:24 AM EDT 7:56 PM EDT
Civil Twilight 5:57 AM EDT 8:23 PM EDT
Nautical Twilight 5:24 AM EDT 8:55 PM EDT
Astronomical Twilight 4:50 AM EDT 9:29 PM EDT
Moon 9:51 PM EDT (8/13) 9:40 AM EDT (8/13)
Length of Visible Light 14h 26m
Length of Day
13h 32m
Waning Gibbous, 88% of the Moon is Illuminated
Aug 13
Waning Gibbous
Aug 17
Last Quarter
Aug 25
New
Sep 2
First Quarter
Sep 8
Full

Hourly Weather History & Observations

Time (EDT) Temp. Heat Index Dew Point Humidity Pressure Visibility Wind Dir Wind Speed Gust Speed Precip Events Conditions
12:56 AM 81.0 °F 89.9 °F 80.1 °F 97% 29.86 in 7.0 mi WSW 5.8 mph - N/A   Mostly Cloudy
1:13 AM 81.0 °F 89.2 °F 79.0 °F 94% 29.84 in 8.0 mi WSW 6.9 mph - N/A   Mostly Cloudy
1:33 AM 80.1 °F 85.4 °F 75.9 °F 87% 29.83 in 10.0 mi NNW 10.4 mph - N/A   Scattered Clouds
1:56 AM 78.1 °F - 75.0 °F 90% 29.83 in 10.0 mi NNW 4.6 mph - N/A   Clear
2:56 AM 77.0 °F - 75.0 °F 94% 29.81 in 10.0 mi SSE 4.6 mph - N/A   Clear
3:56 AM 78.1 °F - 75.0 °F 90% 29.82 in 10.0 mi South 4.6 mph - N/A   Clear
4:56 AM 78.1 °F - 77.0 °F 96% 29.81 in 6.0 mi WSW 5.8 mph - N/A   Clear
5:56 AM 78.1 °F - 77.0 °F 96% 29.82 in 6.0 mi WSW 5.8 mph - N/A   Clear
6:56 AM 77.0 °F - 75.9 °F 96% 29.84 in 6.0 mi SW 6.9 mph - N/A   Clear
7:56 AM 79.0 °F - 77.0 °F 94% 29.84 in 7.0 mi West 12.7 mph 19.6 mph N/A   Clear
8:56 AM 79.0 °F - 75.0 °F 88% 29.84 in 10.0 mi West 9.2 mph - N/A   Unknown
9:56 AM 79.0 °F - 75.0 °F 88% 29.85 in 10.0 mi West 12.7 mph - N/A   Clear
11:56 AM 79.0 °F - 75.9 °F 90% 29.87 in 10.0 mi WNW 11.5 mph - N/A   Overcast
12:56 PM 82.9 °F 90.2 °F 75.0 °F 77% 29.86 in 10.0 mi West 10.4 mph 16.1 mph N/A   Clear
1:56 PM 87.1 °F 95.4 °F 73.9 °F 65% 29.86 in 10.0 mi West 8.1 mph - N/A   Clear
2:56 PM 87.1 °F 93.6 °F 72.0 °F 61% 29.84 in 10.0 mi West 10.4 mph - N/A   Clear
3:56 PM 88.0 °F 94.7 °F 72.0 °F 59% 29.84 in 10.0 mi West 10.4 mph - N/A   Clear
4:56 PM 88.0 °F 93.8 °F 71.1 °F 57% 29.85 in 10.0 mi West 13.8 mph - N/A   Clear
5:56 PM 87.1 °F 92.8 °F 71.1 °F 59% 29.86 in 10.0 mi West 11.5 mph - N/A   Clear
6:56 PM 84.9 °F 88.2 °F 68.0 °F 57% 29.87 in 10.0 mi WNW 12.7 mph - N/A   Clear
7:56 PM 81.0 °F 83.3 °F 66.9 °F 62% 29.89 in 10.0 mi NW 9.2 mph - N/A   Clear
8:56 PM 80.1 °F 82.1 °F 66.0 °F 62% 29.92 in 10.0 mi NW 8.1 mph - N/A   Clear
9:56 PM 78.1 °F - 66.9 °F 68% 29.93 in 10.0 mi NW 8.1 mph - N/A   Partly Cloudy